Location: Aufkirchen
(47.9603°N, 11.3653°E)
Time: 09:22:38
(UTC+01:00)

Tiros 1 - Pass Details

Date: 05 December 2020
Orbit: 630 x 663 km, 48.4° (Epoch: 28 January)

Event Time Altitude Azimuth Distance (km) Brightness Sun altitude
Rises 17:04:32 0° 281° (W) 2,995 11.5 -7.0°
Reaches altitude 10° 17:06:53 10° 280° (W) 2,080 10.7 -7.3°
Maximum altitude 17:11:42 80° 194° (SSW) 673 7.3 -8.1°
Drops below altitude 10° 17:16:28 10° 108° (ESE) 2,063 9.3 -8.8°
Enters shadow 17:17:56 - 108° (ESE) 2,628 9.8 -9.0°
Sets 17:18:48 0° 108° (ESE) 2,968 - -9.1°
